Location: Kermapucano
(48.0667°N, 3.3000°W)
Time: 20:41:32
(UTC+00:00)

Meteor 2-3 Rocket - Pass Details

Date: 29 November 2020
Orbit: 842 x 885 km, 81.2° (Epoch: 27 January)

Event Time Altitude Azimuth Distance (km) Brightness Sun altitude
Rises 05:06:06 0° 190° (S) 3,439 6.8 -25.0°
Reaches altitude 10° 05:08:30 10° 191° (S) 2,512 6.1 -24.6°
Maximum altitude 05:14:14 86° 279° (W) 886 3.7 -23.6°
Drops below altitude 10° 05:20:05 10° 11° (N) 2,554 6.2 -22.7°
Sets 05:22:33 0° 12° (NNE) 3,500 7.0 -22.3°
